Location: Krakow
(50.0830°N, 19.9170°E)
Time: 06:31:20
(UTC+01:00)

SR - Pass Details

Date: 12 February 2023
Orbit: 582 x 867 km, 66.7° (Epoch: 20 March)

Event Time Altitude Azimuth Distance (km) Brightness Sun altitude
Rises 11:28:22 0° 188° (S) 3,190 ? 26.0°
Reaches altitude 10° 11:30:59 10° 179° (S) 2,220 ? 26.0°
Maximum altitude 11:35:29 33° 116° (ESE) 1,144 ? 26.1°
Drops below altitude 10° 11:39:41 10° 53° (NE) 2,071 ? 26.1°
Sets 11:42:03 0° 43° (NE) 2,944 ? 26.2°
